Date,TemperatureHighF,TemperatureAvgF,TemperatureLowF,DewpointHighF,DewpointAvgF,DewpointLowF,HumidityHigh,HumidityAvg,HumidityLow,PressureMaxIn,PressureMinIn,WindSpeedMaxMPH,WindSpeedAvgMPH,GustSpeedMaxMPH,PrecipitationSumIn
2013-3-1,52.8,50.0,45.8,49.9,46.5,42.9,97,88,78,30.22,30.16,22,12,38,0.47
2013-3-2,52.0,46.8,36.5,48.5,43.1,33.5,92,87,79,30.17,29.94,23,3,34,0.29
2013-3-3,48.4,39.6,32.5,35.9,32.8,29.1,91,77,51,30.26,30.10,18,5,28,0.01
2013-3-4,51.9,39.9,30.0,33.6,28.6,23.0,94,67,37,30.26,29.92,11,3,21,0.00
2013-3-5,46.1,42.5,39.6,36.0,28.5,23.3,84,58,47,29.93,29.71,14,6,32,0.00
2013-3-6,43.2,40.7,38.5,39.6,35.7,31.5,93,82,71,29.83,29.57,12,4,17,0.22
2013-3-7,46.7,40.4,37.6,42.1,38.4,35.8,97,92,81,30.06,29.83,10,1,14,0.12
2013-3-8,51.9,40.9,34.2,40.0,36.1,32.7,97,84,59,30.18,30.03,12,2,22,0.00
2013-3-9,55.4,41.5,31.0,40.7,35.2,30.2,97,80,51,30.43,30.18,11,2,16,0.01
2013-3-10,46.0,41.6,38.8,41.3,38.2,35.7,94,88,79,30.43,30.36,9,3,15,0.01
2013-3-11,52.0,43.3,37.1,41.4,37.5,33.4,96,81,57,30.39,30.08,9,2,18,0.13
2013-3-12,52.2,46.8,38.7,50.0,45.1,37.8,98,94,88,30.08,29.90,23,10,40,0.61
2013-3-13,52.2,50.0,47.2,50.1,47.2,42.6,96,90,80,30.10,29.98,20,9,40,0.40
2013-3-14,53.1,48.5,46.1,50.1,45.8,42.7,99,90,77,30.06,29.95,16,5,31,0.22
2013-3-15,58.3,49.8,44.3,48.4,45.1,40.9,97,85,65,30.14,30.05,18,5,33,0.09
2013-3-16,47.2,43.9,37.7,45.5,39.7,30.9,97,86,58,30.06,29.77,23,7,34,0.18
2013-3-17,51.6,42.7,38.2,34.2,30.8,26.8,82,64,42,30.09,29.86,18,7,27,0.00
2013-3-18,51.4,41.8,36.1,36.6,32.7,28.5,92,71,45,30.19,29.99,18,7,33,0.13
2013-3-19,51.9,39.8,33.1,38.0,29.5,-99.9,93,68,45,30.19,29.51,28,6,43,0.12
2013-3-20,53.4,45.5,39.3,47.4,36.6,-99.9,95,73,56,29.88,29.24,30,14,50,0.08
2013-3-21,51.6,39.7,32.6,34.7,30.2,26.8,87,70,43,30.12,29.88,18,6,28,0.02
2013-3-22,45.9,38.6,31.7,38.0,28.9,25.3,91,69,48,30.32,30.12,16,6,30,0.13
2013-3-23,51.8,38.6,30.3,30.7,27.1,23.9,89,65,39,30.35,30.26,9,2,17,0.00
2013-3-24,54.3,41.5,33.9,30.2,27.8,23.8,80,60,34,30.27,30.08,10,3,18,0.00
2013-3-25,59.7,45.8,38.1,37.9,31.6,27.8,77,59,33,30.09,29.91,12,4,18,0.00
2013-3-26,62.5,46.5,36.3,39.0,34.6,31.1,87,65,40,29.97,29.92,11,2,16,0.00
2013-3-27,58.1,46.8,35.3,41.2,37.5,33.9,96,72,49,29.95,29.89,10,2,15,0.00
2013-3-28,63.1,50.7,39.4,44.5,40.2,35.9,89,69,45,30.09,29.95,11,2,16,0.00
2013-3-29,63.8,50.8,41.1,46.5,42.4,39.1,96,75,50,30.21,30.09,10,2,16,0.00
2013-3-30,64.1,49.5,39.6,45.1,41.4,38.1,97,76,49,30.23,30.05,10,3,18,0.00
2013-3-31,70.3,53.0,41.5,46.6,40.6,34.9,95,65,36,30.05,29.86,13,3,17,0.00